Location: Dötzum
(52.0808°N, 9.8063°E)
Time: 05:20:30
(UTC+00:00)

MOZ.5/SAFIR/RUBIN 5/SL-8 - Pass Details

Date: 27 May 2022
Orbit: 677 x 704 km, 98.2° (Epoch: 26 June)

Event Time Altitude Azimuth Distance (km) Brightness Sun altitude
Exits shadow 00:34:55 21° 175° (S) 1,537 5.0 -14.7°
Maximum altitude 00:38:04 72° 257° (WSW) 738 3.8 -14.6°
Drops below altitude 10° 00:42:50 10° 342° (NNW) 2,180 7.1 -14.3°
Sets 00:45:07 0° 344° (NNW) 3,106 8.1 -14.2°
